Zurück zum Katalog

SL-8 R/B

AktivPO
NORAD 35637·ROCKET BODY·🇷🇺 Russia

Gestartet Jul 21, 2009 von Plesetsk Cosmodrome

Loading…

Nächste Überflüge (nächste 24 Stunden)

TLE

AktuellSource: Space-Track

Epoche: Sep 14, 2026, 14:37 UTC

1 35637U 09039C   26257.60931801  .00000077  00000-0  48592-4 0  9991
2 35637  82.9550 305.5385 0014554 296.6645 216.9915 13.91745854668933

Verfolge SL-8 R/B in Echtzeit mit AllMySat

Download on the App Store